TimeEST,TemperatureF,Dew PointF,Humidity,Sea Level PressureIn,VisibilityMPH,Wind Direction,Wind SpeedMPH,Gust SpeedMPH,PrecipitationIn,Events,Conditions,WindDirDegrees,DateUTC
12:53 AM,48.0,37.9,68,30.34,10.0,NNE,8.1,-,N/A,,Partly Cloudy,20,2012-11-19 05:53:00
1:39 AM,50.0,37.4,62,30.33,10.0,NNE,9.2,-,N/A,,Overcast,20,2012-11-19 06:39:00
1:53 AM,50.0,37.0,61,30.32,10.0,NNE,12.7,-,N/A,,Overcast,20,2012-11-19 06:53:00
2:28 AM,51.8,37.4,58,30.32,10.0,NNE,16.1,21.9,N/A,,Overcast,20,2012-11-19 07:28:00
2:53 AM,51.1,37.9,61,30.31,10.0,NNE,17.3,-,N/A,,Overcast,30,2012-11-19 07:53:00
3:53 AM,51.1,39.9,66,30.30,10.0,NNE,13.8,-,N/A,,Overcast,30,2012-11-19 08:53:00
4:53 AM,51.1,42.1,71,30.30,10.0,NNE,13.8,-,N/A,,Overcast,30,2012-11-19 09:53:00
5:53 AM,51.1,42.1,71,30.31,10.0,NNE,15.0,24.2,N/A,,Mostly Cloudy,30,2012-11-19 10:53:00
6:32 AM,51.8,42.8,71,30.31,10.0,NNE,15.0,20.7,N/A,,Overcast,30,2012-11-19 11:32:00
6:53 AM,51.1,43.0,74,30.31,10.0,NNE,16.1,-,N/A,,Overcast,30,2012-11-19 11:53:00
7:53 AM,52.0,44.1,74,30.32,10.0,NNE,11.5,-,N/A,,Overcast,30,2012-11-19 12:53:00
8:53 AM,53.1,43.0,69,30.33,10.0,NNE,11.5,-,N/A,,Overcast,30,2012-11-19 13:53:00
9:53 AM,55.0,44.1,67,30.33,10.0,NE,12.7,-,N/A,,Overcast,40,2012-11-19 14:53:00
10:18 AM,55.4,44.6,67,30.31,10.0,NE,13.8,21.9,N/A,,Mostly Cloudy,40,2012-11-19 15:18:00
10:53 AM,57.9,45.0,62,30.30,10.0,NE,16.1,-,N/A,,Mostly Cloudy,40,2012-11-19 15:53:00
11:53 AM,60.1,45.0,57,30.30,10.0,NE,11.5,-,N/A,,Overcast,40,2012-11-19 16:53:00
12:16 PM,60.8,44.6,55,30.28,10.0,NNE,9.2,-,N/A,,Overcast,30,2012-11-19 17:16:00
12:53 PM,61.0,46.0,58,30.26,10.0,ENE,9.2,-,N/A,,Overcast,60,2012-11-19 17:53:00
1:53 PM,62.1,46.0,56,30.23,10.0,NE,10.4,-,N/A,,Overcast,50,2012-11-19 18:53:00
2:53 PM,62.1,46.9,58,30.23,10.0,East,6.9,-,N/A,,Overcast,90,2012-11-19 19:53:00
3:53 PM,61.0,46.9,60,30.22,10.0,East,6.9,-,N/A,,Overcast,100,2012-11-19 20:53:00
4:53 PM,60.1,46.0,60,30.22,10.0,ENE,6.9,-,N/A,,Clear,70,2012-11-19 21:53:00
5:53 PM,57.0,46.0,67,30.22,10.0,ENE,4.6,-,N/A,,Clear,70,2012-11-19 22:53:00
6:53 PM,55.9,46.0,69,30.22,10.0,ENE,4.6,-,N/A,,Clear,60,2012-11-19 23:53:00
7:53 PM,55.0,46.0,72,30.22,10.0,ENE,3.5,-,N/A,,Clear,70,2012-11-20 00:53:00
8:53 PM,53.1,46.0,77,30.23,10.0,NE,4.6,-,N/A,,Clear,50,2012-11-20 01:53:00
9:53 PM,52.0,45.0,77,30.21,10.0,NE,5.8,-,N/A,,Clear,50,2012-11-20 02:53:00
10:53 PM,51.1,46.0,83,30.22,10.0,NNE,4.6,-,N/A,,Overcast,20,2012-11-20 03:53:00
11:53 PM,51.1,46.0,83,30.20,10.0,NE,5.8,-,N/A,,Overcast,40,2012-11-20 04:53:00